FENGYUN 1C DEB, 36652

Orbit data source: Space-Track

FENGYUN 1C DEB, 36652 is space debris in SSO originally from a launch on Mon, 10 May 1999 UTC launched from the Taiyaun Space Center, China (TSC). Fengyun 1C debris stems from the Chinese weather satellite Fengyun-1C, which was intentionally destroyed by a Chinese anti-satellite missile in 2007. This event dramatically increased the amount of space debris, with thousands of trackable fragments posing hazards to satellites and human spaceflight. The Fengyun 1C debris cloud has become a focal point in discussions about space sustainability and the need for international regulations to prevent the creation of new debris.

Loading next visibility...
Identifier
36652, 1999-025DXW
Orbit
SSO
Country
Flag of CNCN / PRC
Related business
Manufacturer
Unknown
Mission
Spacecraft
Bus & Motor
Unknown
Mass
Unknown
Launch date (UTC)
1999-05-10 (27 years ago)
Launch vehicle
Unknown
Launch site
Taiyaun Space Center, China (TSC)
Object type
Payload
Rocket body
Debris
Shape & HBR
Unknown shape, 0.1 m
Radar Cross Section
Medium (>0.1 m² and <1 m²)

Expand to show TLE details & history
Last TLE update: 3 days ago

TLE from 3 days ago
0 FENGYUN 1C DEB
1 36652U 99025DXW 26262.21603054  .00002133  00000-0  92335-3 0  9990
2 36652  98.9339 353.9256 0049825 263.9428  95.6072 14.24750252683165
Epoch: 2026-09-19T05:11Z
TLE epoch observation values (Epoch: 2026-09-19T05:11:05.038Z)
Latitude
0.00003°
Longitude
-81.97315°
Altitude
815.923 km
Speed
7.443 km/s
True Right ascension
23h 35m 42s
True Declination
0° 00' 00"
Sunlit
Object was in full shadow at epoch
Visualization orbit readout
Latitude
Unknown
Longitude
Unknown
Altitude
Unknown
Speed
Unknown
Apparent Right ascension
Unknown
Apparent Declination
Unknown
Sunlit
N/A
Visualization observer readout
Local Sidereal Time
00:04:21
Azimuth
Unknown
Elevation
Unknown
Doppler factor
Unknown
Orbital elements
Apogee altitude
842.293 km
Perigee altitude
770.698 km
Semi-major axis
7,184.633 km
Eccentricity
0.00498
Inclination
98.9339°
RAAN
353.9256°
Arg. of periapsis
263.9428°
True anomaly
96.17507°
Mean anomaly
95.6072°
Eccentric anomaly
95.89117°
Mean motion
3.56399 °/min
Orbital period
101.01 mins
BSTAR
0.00092335
Loading maneuver chart data...
Computing Atmospheric mass density...

Documentation

Showing up to 5 results
|